Regional Weather Roundup
Issued by NWS

Home | Current Version | Previous Version | Text Only | Print | Product List | Glossary Off
Versions: 1 2 3 4 5 6 7 8 9 10 11 12 13 14 15 16 17 18 19 20 21 22 23 24 25 26 27 28 29 30 31 32 33 34 35 36 37 38 39 40 41 42 43 44 45 46 47 48 49 50

000
ASUS43 KLMK 250910
RWRKY
SDFRWRKY ALL
KENTUCKY REGIONAL WEATHER ROUNDUP
NATIONAL WEATHER SERVICE LOUISVILLE KY
400 AM EST SAT NOV 25 2017

NOTE "FAIR" INDICATES FEW OR NO CLOUDS BELOW 12,000 FEET
WITH NO SIGNIFICANT WEATHER AND/OR OBSTRUCTIONS TO VISIBILITY.

KYZ001>023-026-027-061>063-070>075-251000-
WESTERN AND SOUTH CENTRAL KENTUCKY

CITY           SKY/WX    TMP DP  RH WIND       PRES   REMARKS
PADUCAH        CLOUDY    52  34  50 SW6       29.84R
HENDERSON      CLOUDY    51  36  56 SW12      29.82R
OWENSBORO      MOCLDY    50  35  56 SW8       29.83R
HOPKINSVILLE   MOCLDY    52  30  43 SW13      29.85S
BOWLING GREEN  MOCLDY    50  29  44 SW9       29.86F
GLASGOW        MOCLDY    51  30  43 SW10      29.86F
$$

KYZ024-025-028>034-038-045-046-053-251000-
NORTH CENTRAL KENTUCKY

CITY           SKY/WX    TMP DP  RH WIND       PRES   REMARKS
LOUISVILLE/SDF PTCLDY    51  28  41 SW7       29.80S
LOUISVILLE/LOU PTCLDY    51  30  44 S9        29.80S
FORT KNOX      PTCLDY    50  28  42 SW9       29.80S
$$

KYZ035>037-039>044-047>052-055>060-089>105-251000-
NORTHEAST KENTUCKY

CITY           SKY/WX    TMP DP  RH WIND       PRES   REMARKS
LEXINGTON      PTCLDY    51  34  52 SW13      29.81S
COVINGTON      CLOUDY    50  30  46 SW8       29.75R
FRANKFORT      CLOUDY    50  30  46 SW10      29.79S
$$

KYZ054-064>069-076>088-106>120-251000-
SOUTHEAST KENTUCKY

CITY           SKY/WX    TMP DP  RH WIND       PRES   REMARKS
JACKSON        MOCLDY    50  35  56 VRB5      29.84S
LONDON         MOCLDY    48  38  68 SW5       29.88S
SOMERSET       MOCLDY    43  36  75 S3        29.89S
MIDDLESBORO    PTCLDY    35  35  99 CALM      29.92R
MONTICELLO     CLOUDY    52  39  61 SW20      29.90S
$$





USA.gov is the U.S. government's official web portal to all federal, state and local government web resources and services.